Redmond, OR

12:33 PM PST on November 22, 2017 (GMT -0800)
Roberts Field Airport

Weather History for KRDM - November, 2010

Change the Weather History Date:

Sunday, November 14, 2010

  Actual Average Record
Temperature  
Mean Temperature 50 °F 38 °F  
Max Temperature 58 °F 49 °F 74 °F (1999)
Min Temperature 42 °F 26 °F -7 °F (1955)
Degree Days  
Heating Degree Days 15 27  
Month to date heating degree days 305 348  
Since 1 July heating degree days 1224 1293  
Cooling Degree Days 0 0  
Month to date cooling degree days 0 0  
Year to date cooling degree days 161 222  
Moisture  
Dew Point 44 °F    
Average Humidity 83    
Maximum Humidity 100    
Minimum Humidity 66    
Precipitation  
Precipitation 0.06 in 0.03 in 0.67 in (2014)
Month to date precipitation 0.38 0.43  
Year to date precipitation 9.16 7.21  
Sea Level Pressure  
Sea Level Pressure 30.29 in    
Wind  
Wind Speed 8 mph (WNW)    
Max Wind Speed 20 mph    
Max Gust Speed 25 mph    
Visibility 10 miles    
Events Rain    
T = Trace of Precipitation, MM = Missing Value Source: NWS Daily Summary

Daily Weather History Graph

Daily Weather History Graph

Search for Another Location

Airport or City:

Trip Planner

Search our weather history database for the weather conditions in past years. The results will help you decide how hot, cold, wet, or windy it might be!

Date:

Astronomy

Nov. 14, 2010 Rise Set
Actual Time 6:59 AM PST 4:38 PM PST
Civil Twilight 6:27 AM PST 5:09 PM PST
Nautical Twilight 5:52 AM PST 5:44 PM PST
Astronomical Twilight 5:18 AM PST 6:19 PM PST
Moon 1:12 PM PST (11/14) No Moon Set
Length of Visible Light 10h 42m
Length of Day
9h 39m
First Quarter, 61% of the Moon is Illuminated
Nov 14
First Quarter
Nov 21
Full
Nov 28
Last Quarter
Dec 5
New
Dec 13
First Quarter

Hourly Weather History & Observations

Time (PST) Temp. Windchill Dew Point Humidity Pressure Visibility Wind Dir Wind Speed Gust Speed Precip Events Conditions
12:56 AM 43.0 °F 41.3 °F 39.9 °F 89% 30.34 in 10.0 mi East 3.5 mph - N/A   Overcast
1:56 AM 43.0 °F - 41.0 °F 93% 30.33 in 10.0 mi Calm Calm - 0.00 in Rain Light Rain
2:56 AM 43.0 °F 41.3 °F 41.0 °F 93% 30.30 in 10.0 mi SE 3.5 mph - 0.00 in   Overcast
3:56 AM 43.0 °F - 42.1 °F 97% 30.30 in 4.0 mi Calm Calm - 0.03 in Rain Rain
4:56 AM 44.1 °F - 43.0 °F 96% 30.30 in 10.0 mi Calm Calm - 0.03 in   Overcast
5:56 AM 44.1 °F - 43.0 °F 96% 30.29 in 10.0 mi Calm Calm - N/A   Overcast
6:56 AM 44.1 °F - 43.0 °F 96% 30.30 in 10.0 mi Calm Calm - N/A   Overcast
7:56 AM 45.0 °F - 44.1 °F 97% 30.31 in 10.0 mi Calm Calm - N/A   Overcast
8:56 AM 52.0 °F - 46.0 °F 80% 30.29 in 10.0 mi NW 9.2 mph 18.4 mph N/A   Mostly Cloudy
9:56 AM 53.1 °F - 45.0 °F 74% 30.30 in 10.0 mi NW 10.4 mph - N/A   Mostly Cloudy
10:56 AM 54.0 °F - 46.0 °F 75% 30.30 in 10.0 mi WNW 6.9 mph - N/A   Mostly Cloudy
11:56 AM 55.9 °F - 46.0 °F 69% 30.28 in 10.0 mi WNW 12.7 mph - N/A   Overcast
12:56 PM 57.0 °F - 46.9 °F 69% 30.27 in 10.0 mi WNW 6.9 mph - N/A   Mostly Cloudy
1:56 PM 57.9 °F - 46.0 °F 65% 30.26 in 10.0 mi NW 11.5 mph 17.3 mph N/A   Clear
2:56 PM 55.9 °F - 45.0 °F 67% 30.27 in 10.0 mi WNW 12.7 mph - N/A   Partly Cloudy
3:56 PM 55.0 °F - 44.1 °F 67% 30.28 in 10.0 mi WNW 9.2 mph - N/A   Scattered Clouds
4:56 PM 54.0 °F - 43.0 °F 66% 30.28 in 10.0 mi WNW 10.4 mph - N/A   Scattered Clouds
5:56 PM 53.1 °F - 43.0 °F 69% 30.27 in 10.0 mi WNW 15.0 mph 20.7 mph N/A   Clear
6:56 PM 52.0 °F - 43.0 °F 71% 30.30 in 10.0 mi WNW 12.7 mph - N/A   Mostly Cloudy
7:56 PM 52.0 °F - 43.0 °F 71% 30.28 in 10.0 mi WNW 11.5 mph - N/A   Overcast
8:56 PM 52.0 °F - 43.0 °F 71% 30.29 in 10.0 mi WNW 13.8 mph - N/A   Mostly Cloudy
9:56 PM 51.1 °F - 43.0 °F 74% 30.27 in 10.0 mi WNW 12.7 mph - N/A   Mostly Cloudy
10:56 PM 51.1 °F - 42.1 °F 71% 30.28 in 10.0 mi WNW 10.4 mph - N/A   Overcast
11:56 PM 51.1 °F - 42.1 °F 71% 30.28 in 10.0 mi WNW 9.2 mph - N/A   Overcast